START_TIME,STEP,MOV.,M29,t_acc.,H22,t_acc.,H26,t_acc.,H30,t_acc.
1979-07-15 09:00:32.130 ,0,0,0.,24.0,0.,24.0,0.,24.0,0.,24.0
1979-07-15 09:00:56.130 ,0,1,0.,24.0,0.,24.0,0.,24.0,0.,24.0
1979-07-15 09:01:20.130 ,0,0,0.,24.0,0.,24.0,0.,24.0,0.,24.0
1979-07-15 09:01:44.130 ,1,1,0.,24.0,0.,24.0,0.,24.0,0.,24.0
1979-07-15 09:02:08.130 ,1,0,0.,24.0,0.,24.0,0.,24.0,0.,24.0
1979-07-15 09:02:32.130 ,2,1,0.,24.0,0.,24.0,0.,24.0,0.,24.0
1979-07-15 09:02:56.130 ,2,0,0.,24.0,0.,24.0,0.,24.0,0.,24.0
1979-07-15 09:03:20.130 ,3,1,0.,24.0,0.,24.0,0.,24.0,0.,24.0
1979-07-15 09:03:44.130 ,3,0,0.,24.0,0.,24.0,0.,24.0,0.,24.0
1979-07-15 09:04:08.130 ,4,1,0.,24.0,0.,24.0,0.,24.0,0.,24.0
1979-07-15 09:04:32.130 ,4,0,0.,24.0,0.,24.0,0.,24.0,0.,24.0
1979-07-15 09:04:56.130 ,5,1,0.,24.0,0.,24.0,0.,24.0,0.,24.0
1979-07-15 09:05:20.130 ,5,0,0.,24.0,0.,24.0,0.,24.0,0.,24.0
1979-07-15 09:05:44.130 ,6,1,0.,24.0,0.,24.0,0.,24.0,0.,24.0
1979-07-15 09:06:08.130 ,6,0,0.,24.0,0.,24.0,0.,24.0,0.,24.0
1979-07-15 09:06:32.130 ,7,0,0.,24.0,0.,24.0,0.,24.0,0.,24.0
1979-07-15 09:06:56.130 ,7,0,0.,24.0,0.,24.0,0.,24.0,0.,24.0
1979-07-15 09:07:20.130 ,5,1,0.,24.0,0.,24.0,0.,24.0,0.,24.0
1979-07-15 09:07:44.130 ,1,1,0.,24.0,0.,24.0,0.,24.0,0.,24.0
1979-07-15 09:08:08.130 ,2,1,0.,24.0,0.,24.0,0.,24.0,0.,24.0
1979-07-15 09:08:32.130 ,6,1,0.,24.0,0.,24.0,0.,24.0,0.,24.0
1979-07-15 09:08:56.130 ,5,1,0.,24.0,0.,24.0,0.,24.0,0.,24.0
1979-07-15 09:09:20.130 ,1,1,0.,24.0,0.,24.0,0.,24.0,0.,24.0
1979-07-15 09:09:44.130 ,2,1,0.,24.0,0.,24.0,0.,24.0,0.,24.0
1979-07-15 09:10:08.130 ,6,1,0.,24.0,0.,24.0,0.,24.0,0.,24.0
1979-07-15 09:10:32.130 ,5,1,0.,24.0,0.,24.0,0.,24.0,0.,24.0
1979-07-15 09:10:56.130 ,1,1,0.,24.0,0.,24.0,0.,24.0,0.,24.0
1979-07-15 09:11:20.130 ,2,1,0.,24.0,0.,24.0,0.,24.0,0.,24.0
1979-07-15 09:11:44.130 ,6,1,0.,24.0,0.,24.0,0.,24.0,0.,24.0
1979-07-15 09:12:08.130 ,5,1,0.,24.0,0.,24.0,0.,24.0,0.,24.0
1979-07-15 09:12:32.130 ,1,1,0.,24.0,0.,24.0,0.,24.0,0.,24.0
1979-07-15 09:12:56.130 ,2,1,0.,24.0,0.,24.0,0.,24.0,0.,24.0
1979-07-15 09:13:20.130 ,6,1,0.,24.0,0.,24.0,0.,24.0,0.,24.0
1979-07-15 09:13:44.130 ,5,1,0.,24.0,0.,24.0,0.,24.0,0.,24.0
1979-07-15 09:14:08.130 ,1,1,0.,24.0,0.,24.0,0.,24.0,0.,24.0
1979-07-15 09:14:32.130 ,2,1,0.,24.0,0.,24.0,0.,24.0,0.,24.0
1979-07-15 09:14:56.130 ,6,1,0.,24.0,0.,24.0,0.,24.0,0.,24.0
1979-07-15 09:15:20.130 ,5,1,0.,24.0,0.,24.0,0.,24.0,0.,24.0
1979-07-15 09:15:44.130 ,1,1,0.,24.0,0.,24.0,0.,24.0,0.,24.0
1979-07-15 09:16:08.130 ,2,1,0.,24.0,0.,24.0,0.,24.0,0.,24.0
1979-07-15 09:16:32.130 ,6,1,0.,24.0,0.,24.0,0.,24.0,0.,24.0
1979-07-15 09:16:56.130 ,5,1,0.,24.0,0.,24.0,0.,24.0,0.,24.0
1979-07-15 09:17:20.130 ,0,1,,0,,0,,0,,0
1979-07-15 09:17:44.130 ,0,0,0.,24.0,0.,24.0,0.,24.0,0.,24.0
1979-07-15 09:18:08.130 ,0,0,0.,24.0,0.,24.0,0.,24.0,0.,24.0
1979-07-15 09:18:32.130 ,5,1,0.,24.0,0.,24.0,0.,24.0,0.,24.0
1979-07-15 09:18:56.130 ,5,0,0.,24.0,0.,24.0,0.,24.0,0.,24.0
1979-07-15 09:19:20.130 ,4,1,0.,24.0,0.,24.0,0.,24.0,0.,24.0
1979-07-15 09:19:44.130 ,4,0,0.,24.0,0.,24.0,0.,24.0,0.,24.0
1979-07-15 09:20:08.130 ,3,1,0.,24.0,0.,24.0,0.,24.0,0.,24.0
1979-07-15 09:20:32.130 ,3,0,0.,24.0,0.,24.0,0.,24.0,0.,24.0
1979-07-15 09:20:56.130 ,2,1,0.,24.0,0.,24.0,0.,24.0,0.,24.0
1979-07-15 09:21:20.130 ,2,0,0.,24.0,0.,24.0,0.,24.0,0.,24.0
1979-07-15 09:21:44.130 ,1,1,0.,24.0,0.,24.0,0.,24.0,0.,24.0
1979-07-15 09:22:08.130 ,1,0,0.,24.0,0.,24.0,0.,24.0,0.,24.0
1979-07-15 09:22:32.130 ,0,1,0.,24.0,0.,24.0,0.,24.0,0.,24.0
1979-07-15 09:22:56.130 ,0,0,0.,24.0,0.,24.0,0.,24.0,0.,24.0
1979-07-15 09:23:20.130 ,0,1,0.,24.0,0.,24.0,0.,24.0,0.,24.0
1979-07-15 09:23:44.130 ,0,0,0.,24.0,0.,24.0,0.,24.0,0.,24.0
1979-07-15 09:24:08.130 ,1,1,0.,24.0,0.,24.0,0.,24.0,0.,24.0
1979-07-15 09:24:32.130 ,1,0,0.,24.0,0.,24.0,0.,24.0,0.,24.0
1979-07-15 09:24:56.130 ,2,1,0.,24.0,0.,24.0,0.,24.0,0.,24.0
1979-07-15 09:25:20.130 ,2,0,0.,24.0,0.,24.0,0.,24.0,0.,24.0
1979-07-15 09:25:44.130 ,3,1,0.,24.0,0.,24.0,0.,24.0,0.,24.0
1979-07-15 09:26:08.130 ,3,0,0.,24.0,0.,24.0,0.,24.0,0.,24.0
1979-07-15 09:26:32.130 ,4,1,0.,24.0,0.,24.0,0.,24.0,0.,24.0
1979-07-15 09:26:56.130 ,4,0,0.,24.0,0.,24.0,0.,24.0,0.,24.0
1979-07-15 09:27:20.130 ,5,1,0.,24.0,0.,24.0,0.,24.0,0.,24.0
1979-07-15 09:27:44.130 ,5,0,0.,24.0,0.,24.0,0.,24.0,0.,24.0
1979-07-15 09:28:08.130 ,6,1,0.,24.0,0.,24.0,0.,24.0,0.,24.0
1979-07-15 09:28:32.130 ,6,0,0.,24.0,0.,24.0,0.,24.0,0.,24.0
1979-07-15 09:28:56.130 ,7,1,0.,24.0,0.,24.0,0.,24.0,0.,24.0
1979-07-15 09:29:20.130 ,7,0,0.,24.0,0.,24.0,0.,24.0,0.,24.0
1979-07-15 09:29:44.130 ,7,1,0.,24.0,0.,24.0,0.,24.0,0.,24.0
1979-07-15 09:30:08.130 ,7,0,0.,24.0,0.,24.0,0.,24.0,0.,24.0
1979-07-15 09:30:32.130 ,6,1,0.,24.0,0.,24.0,0.,24.0,0.,24.0
1979-07-15 09:30:56.130 ,6,0,0.,24.0,0.,24.0,0.,24.0,0.,24.0
1979-07-15 09:31:20.130 ,5,1,0.,24.0,0.,24.0,0.,24.0,0.,24.0
1979-07-15 09:31:44.130 ,5,0,0.,24.0,0.,24.0,0.,24.0,0.,24.0
1979-07-15 09:32:08.130 ,4,1,0.,24.0,0.,24.0,0.,24.0,0.,24.0
1979-07-15 09:32:32.130 ,4,0,0.,24.0,0.,24.0,0.,24.0,0.,24.0
1979-07-15 09:32:56.130 ,3,1,0.,24.0,0.,24.0,0.,24.0,0.,24.0
1979-07-15 09:33:20.130 ,3,0,0.,24.0,0.,24.0,0.,24.0,0.,24.0
1979-07-15 09:33:44.130 ,2,1,0.,24.0,0.,24.0,0.,24.0,0.,24.0
1979-07-15 09:34:08.130 ,2,0,0.,24.0,0.,24.0,0.,24.0,0.,24.0
1979-07-15 09:34:32.130 ,1,1,0.,24.0,0.,24.0,0.,24.0,0.,24.0
1979-07-15 09:34:56.130 ,1,0,0.,24.0,0.,24.0,0.,24.0,0.,24.0
1979-07-15 09:35:20.130 ,0,1,0.,24.0,0.,24.0,0.,24.0,0.,24.0
1979-07-15 09:35:44.130 ,0,0,0.,24.0,0.,24.0,0.,24.0,0.,24.0
1979-07-15 09:36:08.130 ,0,1,0.,24.0,0.,24.0,0.,24.0,0.,24.0
1979-07-15 09:36:32.130 ,0,0,0.,24.0,0.,24.0,0.,24.0,0.,24.0
1979-07-15 09:36:56.130 ,1,1,0.,24.0,0.,24.0,0.,24.0,0.,24.0
1979-07-15 09:37:20.130 ,1,0,0.,24.0,0.,24.0,0.,24.0,0.,24.0
1979-07-15 09:37:44.130 ,2,1,0.,24.0,0.,24.0,0.,24.0,0.,24.0
1979-07-15 09:38:08.130 ,2,0,0.,24.0,0.,24.0,0.,24.0,0.,24.0
1979-07-15 09:38:32.130 ,3,1,0.,24.0,0.,24.0,0.,24.0,0.,24.0
1979-07-15 09:38:56.130 ,3,0,0.,24.0,0.,24.0,0.,24.0,0.,24.0
1979-07-15 09:39:20.130 ,4,1,0.,24.0,0.,24.0,0.,24.0,0.,24.0
1979-07-15 09:39:44.130 ,4,0,0.,24.0,0.,24.0,0.,24.0,0.,24.0
1979-07-15 09:40:08.130 ,5,1,0.,24.0,0.,24.0,0.,24.0,0.,24.0
1979-07-15 09:40:32.130 ,5,0,0.,24.0,0.,24.0,0.,24.0,0.,24.0
1979-07-15 09:40:56.130 ,6,1,0.,24.0,0.,24.0,0.,24.0,0.,24.0
1979-07-15 09:41:20.130 ,6,0,0.,24.0,0.,24.0,0.,24.0,0.,24.0
1979-07-15 09:41:44.130 ,7,1,0.,24.0,0.,24.0,0.,24.0,0.,24.0
1979-07-15 09:42:08.130 ,7,0,0.,24.0,0.,24.0,0.,24.0,0.,24.0
1979-07-15 09:42:32.130 ,7,1,0.,24.0,0.,24.0,0.,24.0,0.,24.0
1979-07-15 09:42:56.130 ,7,0,0.,24.0,0.,24.0,0.,24.0,0.,24.0
1979-07-15 09:43:20.130 ,6,1,0.,24.0,0.,24.0,0.,24.0,0.,24.0
1979-07-15 09:43:44.130 ,6,0,0.,24.0,0.,24.0,0.,24.0,0.,24.0
1979-07-15 09:44:08.130 ,5,1,0.,24.0,0.,24.0,0.,24.0,0.,24.0
1979-07-15 09:44:32.130 ,5,0,0.,24.0,0.,24.0,0.,24.0,0.,24.0
1979-07-15 09:44:56.130 ,4,1,0.,24.0,0.,24.0,0.,24.0,0.,24.0
1979-07-15 09:45:20.130 ,4,0,0.,24.0,0.,24.0,0.,24.0,0.,24.0
1979-07-15 09:45:44.130 ,3,1,0.,24.0,0.,24.0,0.,24.0,0.,24.0
1979-07-15 09:46:08.130 ,3,0,0.,24.0,0.,24.0,0.,24.0,0.,24.0
1979-07-15 09:46:32.130 ,2,1,0.,24.0,0.,24.0,0.,24.0,0.,24.0
1979-07-15 09:46:56.130 ,2,0,0.,24.0,0.,24.0,0.,24.0,0.,24.0
1979-07-15 09:47:20.130 ,1,1,0.,24.0,0.,24.0,0.,24.0,0.,24.0
1979-07-15 09:47:44.130 ,1,0,0.,24.0,0.,24.0,0.,24.0,0.,24.0
1979-07-15 09:48:08.130 ,0,1,0.,24.0,0.,24.0,0.,24.0,0.,24.0
1979-07-15 09:48:32.130 ,0,0,0.,24.0,0.,24.0,0.,24.0,0.,24.0
1979-07-15 09:48:56.130 ,0,1,0.,24.0,0.,24.0,0.,24.0,0.,24.0
1979-07-15 09:49:20.130 ,0,0,0.,24.0,0.,24.0,0.,24.0,0.,24.0
1979-07-15 09:49:44.130 ,1,1,0.,24.0,0.,24.0,0.,24.0,0.,24.0
1979-07-15 09:50:08.130 ,1,0,0.,24.0,0.,24.0,0.,24.0,0.,24.0
1979-07-15 09:50:32.130 ,2,1,0.,24.0,0.,24.0,0.,24.0,0.,24.0
1979-07-15 09:50:56.130 ,2,0,0.,24.0,0.,24.0,0.,24.0,0.,24.0
1979-07-15 09:51:20.130 ,3,1,0.,24.0,0.,24.0,0.,24.0,0.,24.0
1979-07-15 09:51:44.130 ,3,0,0.,24.0,0.,24.0,0.,24.0,0.,24.0
1979-07-15 09:52:08.130 ,4,1,0.,24.0,0.,24.0,0.,24.0,0.,24.0
1979-07-15 09:52:32.130 ,4,0,0.,24.0,0.,24.0,0.,24.0,0.,24.0
1979-07-15 09:52:56.130 ,5,1,0.,24.0,0.,24.0,0.,24.0,0.,24.0
1979-07-15 09:53:20.130 ,5,0,0.,24.0,0.,24.0,0.,24.0,0.,24.0
1979-07-15 09:53:44.130 ,6,1,0.,24.0,0.,24.0,0.,24.0,0.,24.0
1979-07-15 09:54:08.130 ,6,0,0.,24.0,0.,24.0,0.,24.0,0.,24.0
1979-07-15 09:54:32.130 ,7,0,0.,24.0,0.,24.0,0.,24.0,0.,24.0
1979-07-15 09:54:56.130 ,7,0,0.,24.0,0.,24.0,0.,24.0,0.,24.0
1979-07-15 09:55:20.130 ,5,1,0.,24.0,0.,24.0,0.,24.0,0.,24.0
1979-07-15 09:55:44.130 ,1,1,0.,24.0,0.,24.0,0.,24.0,0.,24.0
1979-07-15 09:56:08.130 ,2,1,0.,24.0,0.,24.0,0.,24.0,0.,24.0
1979-07-15 09:56:32.130 ,6,1,0.,24.0,0.,24.0,0.,24.0,0.,24.0
1979-07-15 09:56:56.130 ,5,1,0.,24.0,0.,24.0,0.,24.0,0.,24.0
1979-07-15 09:57:20.130 ,1,1,0.,24.0,0.,24.0,0.,24.0,0.,24.0
1979-07-15 09:57:44.130 ,2,1,0.,24.0,0.,24.0,0.,24.0,0.,24.0
1979-07-15 09:58:08.130 ,6,1,0.,24.0,0.,24.0,0.,24.0,0.,24.0
1979-07-15 09:58:32.130 ,5,1,0.,24.0,0.,24.0,0.,24.0,0.,24.0
1979-07-15 09:58:56.130 ,1,1,0.,24.0,0.,24.0,0.,24.0,0.,24.0
1979-07-15 09:59:20.130 ,2,1,0.,24.0,0.,24.0,0.,24.0,0.,24.0
1979-07-15 09:59:44.130 ,6,1,0.,24.0,0.,24.0,0.,24.0,0.,24.0
1979-07-15 10:00:08.130 ,5,1,0.,24.0,0.,24.0,0.,24.0,0.,24.0
1979-07-15 10:00:32.130 ,1,1,0.,24.0,0.,24.0,0.,24.0,0.,24.0
1979-07-15 10:00:56.130 ,2,1,0.,24.0,0.,24.0,0.,24.0,0.,24.0
1979-07-15 10:01:20.130 ,6,1,0.,24.0,0.,24.0,0.,24.0,0.,24.0
1979-07-15 10:01:44.130 ,5,1,0.,24.0,0.,24.0,0.,24.0,0.,24.0
1979-07-15 10:02:08.130 ,1,1,0.,24.0,0.,24.0,0.,24.0,0.,24.0
1979-07-15 10:02:32.130 ,2,1,0.,24.0,0.,24.0,0.,24.0,0.,24.0
1979-07-15 10:02:56.130 ,6,1,0.,24.0,0.,24.0,0.,24.0,0.,24.0
1979-07-15 10:03:20.130 ,5,1,0.,24.0,0.,24.0,0.,24.0,0.,24.0
1979-07-15 10:03:44.130 ,1,1,0.,24.0,0.,24.0,0.,24.0,0.,24.0
1979-07-15 10:04:08.130 ,2,1,0.,24.0,0.,24.0,0.,24.0,0.,24.0
1979-07-15 10:04:32.130 ,6,1,0.,24.0,0.,24.0,0.,24.0,0.,24.0
1979-07-15 10:04:56.130 ,5,1,0.,24.0,0.,24.0,0.,24.0,0.,24.0
1979-07-15 10:05:20.130 ,1,1,0.,24.0,0.,24.0,0.,24.0,0.,24.0
1979-07-15 10:05:44.130 ,0,0,0.,24.0,0.,24.0,0.,24.0,0.,24.0
1979-07-15 10:06:08.130 ,0,0,0.,24.0,0.,24.0,0.,24.0,0.,24.0
1979-07-15 10:06:32.130 ,5,1,0.,24.0,0.,24.0,0.,24.0,0.,24.0
1979-07-15 10:06:56.130 ,5,0,0.,24.0,0.,24.0,0.,24.0,0.,24.0
1979-07-15 10:07:20.130 ,4,1,0.,24.0,0.,24.0,0.,24.0,0.,24.0
1979-07-15 10:07:44.130 ,4,0,0.,24.0,0.,24.0,0.,24.0,0.,24.0
1979-07-15 10:08:08.130 ,3,1,0.,24.0,0.,24.0,0.,24.0,0.,24.0
1979-07-15 10:08:32.130 ,3,0,0.,24.0,0.,24.0,0.,24.0,0.,24.0
1979-07-15 10:08:56.130 ,2,1,0.,24.0,0.,24.0,0.,24.0,0.,24.0
1979-07-15 10:09:20.130 ,2,0,0.,24.0,0.,24.0,0.,24.0,0.,24.0
1979-07-15 10:09:44.130 ,1,1,0.,24.0,0.,24.0,0.,24.0,0.,24.0
1979-07-15 10:10:08.130 ,1,0,0.,24.0,0.,24.0,0.,24.0,0.,24.0
1979-07-15 10:10:32.130 ,0,1,0.,24.0,0.,24.0,0.,24.0,0.,24.0
1979-07-15 10:10:56.130 ,0,0,0.,24.0,0.,24.0,0.,24.0,0.,24.0
1979-07-15 10:11:20.130 ,0,1,0.,24.0,0.,24.0,0.,24.0,0.,24.0
1979-07-15 10:11:44.130 ,0,0,0.,24.0,0.,24.0,0.,24.0,0.,24.0
1979-07-15 10:12:08.130 ,1,1,0.,24.0,0.,24.0,0.,24.0,0.,24.0
1979-07-15 10:12:32.130 ,1,0,0.,24.0,0.,24.0,0.,24.0,0.,24.0
1979-07-15 10:12:56.130 ,2,1,0.,24.0,0.,24.0,0.,24.0,0.,24.0
1979-07-15 10:13:20.130 ,2,0,0.,24.0,0.,24.0,0.,24.0,0.,24.0
1979-07-15 10:13:44.130 ,3,1,0.,24.0,0.,24.0,0.,24.0,0.,24.0
1979-07-15 10:14:08.130 ,3,0,0.,24.0,0.,24.0,0.,24.0,0.,24.0
1979-07-15 10:14:32.130 ,4,1,0.,24.0,0.,24.0,0.,24.0,0.,24.0
1979-07-15 10:14:56.130 ,4,0,0.,24.0,0.,24.0,0.,24.0,0.,24.0
1979-07-15 10:15:20.130 ,5,1,0.,24.0,0.,24.0,0.,24.0,0.,24.0
1979-07-15 10:15:44.130 ,5,0,0.,24.0,0.,24.0,0.,24.0,0.,24.0
1979-07-15 10:16:08.130 ,6,1,0.,24.0,0.,24.0,0.,24.0,0.,24.0
1979-07-15 10:16:32.130 ,6,0,0.,24.0,0.,24.0,0.,24.0,0.,24.0
1979-07-15 10:16:56.130 ,7,1,0.,24.0,0.,24.0,0.,24.0,0.,24.0
1979-07-15 10:17:20.130 ,7,0,0.,24.0,0.,24.0,0.,24.0,0.,24.0
1979-07-15 10:17:44.130 ,7,1,0.,24.0,0.,24.0,0.,24.0,0.,24.0
1979-07-15 10:18:08.130 ,7,0,0.,24.0,0.,24.0,0.,24.0,0.,24.0
1979-07-15 10:18:32.130 ,6,1,0.,24.0,0.,24.0,0.,24.0,0.,24.0
1979-07-15 10:18:56.130 ,6,0,0.,24.0,0.,24.0,0.,24.0,0.,24.0
1979-07-15 10:19:20.130 ,5,1,0.,24.0,0.,24.0,0.,24.0,0.,24.0
1979-07-15 10:19:44.130 ,5,0,0.,24.0,0.,24.0,0.,24.0,0.,24.0
1979-07-15 10:20:08.130 ,4,1,0.,24.0,0.,24.0,0.,24.0,0.,24.0
1979-07-15 10:20:32.130 ,4,0,0.,24.0,0.,24.0,0.,24.0,0.,24.0
1979-07-15 10:20:56.130 ,3,1,0.,24.0,0.,24.0,0.,24.0,0.,24.0
1979-07-15 10:21:20.130 ,3,0,0.,24.0,0.,24.0,0.,24.0,0.,24.0
1979-07-15 10:21:44.130 ,2,1,0.,24.0,0.,24.0,0.,24.0,0.,24.0
1979-07-15 10:22:08.130 ,2,0,0.,24.0,0.,24.0,0.,24.0,0.,24.0
1979-07-15 10:22:32.130 ,1,1,0.,24.0,0.,24.0,0.,24.0,0.,24.0
1979-07-15 10:22:56.130 ,1,0,0.,24.0,0.,24.0,0.,24.0,0.,24.0
1979-07-15 10:23:20.130 ,0,1,0.,24.0,0.,24.0,0.,24.0,0.,24.0
1979-07-15 10:23:44.130 ,0,0,0.,24.0,0.,24.0,0.,24.0,0.,24.0
1979-07-15 10:24:08.130 ,0,1,0.,24.0,0.,24.0,0.,24.0,0.,24.0
1979-07-15 10:24:32.130 ,0,0,0.,24.0,0.,24.0,0.,24.0,0.,24.0
1979-07-15 10:24:56.130 ,1,1,0.,24.0,0.,24.0,0.,24.0,0.,24.0
1979-07-15 10:25:20.130 ,1,0,0.,24.0,0.,24.0,0.,24.0,0.,24.0
1979-07-15 10:25:44.130 ,2,1,0.,24.0,0.,24.0,0.,24.0,0.,24.0
1979-07-15 10:26:08.130 ,2,0,0.,24.0,0.,24.0,0.,24.0,0.,24.0
1979-07-15 10:26:32.130 ,3,1,0.,24.0,0.,24.0,0.,24.0,0.,24.0
1979-07-15 10:26:56.130 ,3,0,0.,24.0,0.,24.0,0.,24.0,0.,24.0
1979-07-15 10:27:20.130 ,4,1,0.,24.0,0.,24.0,0.,24.0,0.,24.0
1979-07-15 10:27:44.130 ,4,0,0.,24.0,0.,24.0,0.,24.0,0.,24.0
1979-07-15 10:28:08.130 ,5,1,0.,24.0,0.,24.0,0.,24.0,0.,24.0
1979-07-15 10:28:32.130 ,5,0,0.,24.0,0.,24.0,0.,24.0,0.,24.0
1979-07-15 10:28:56.130 ,6,1,0.,24.0,0.,24.0,0.,24.0,0.,24.0
1979-07-15 10:29:20.130 ,6,0,0.,24.0,0.,24.0,0.,24.0,0.,24.0
1979-07-15 10:29:44.130 ,7,1,0.,24.0,0.,24.0,0.,24.0,0.,24.0
1979-07-15 10:30:08.130 ,7,0,0.,24.0,0.,24.0,0.,24.0,0.,24.0
1979-07-15 10:30:32.130 ,7,1,0.,24.0,0.,24.0,0.,24.0,0.,24.0
1979-07-15 10:30:56.130 ,7,0,0.,24.0,0.,24.0,0.,24.0,0.,24.0
1979-07-15 10:31:20.130 ,6,1,0.,24.0,0.,24.0,0.,24.0,0.,24.0
1979-07-15 10:31:44.130 ,6,0,0.,24.0,0.,24.0,0.,24.0,0.,24.0
1979-07-15 10:32:08.130 ,5,1,0.,24.0,0.,24.0,0.,24.0,0.,24.0
1979-07-15 10:32:32.130 ,5,0,0.,24.0,0.,24.0,0.,24.0,0.,24.0
1979-07-15 10:32:56.130 ,4,1,0.,24.0,0.,24.0,0.,24.0,0.,24.0
1979-07-15 10:33:20.130 ,4,0,0.,24.0,0.,24.0,0.,24.0,0.,24.0
1979-07-15 10:33:44.130 ,3,1,0.,24.0,0.,24.0,0.,24.0,0.,24.0
1979-07-15 10:34:08.130 ,3,0,0.,24.0,0.,24.0,0.,24.0,0.,24.0
1979-07-15 10:34:32.130 ,2,1,0.,24.0,0.,24.0,0.,24.0,0.,24.0
1979-07-15 10:34:56.130 ,2,0,0.,24.0,0.,24.0,0.,24.0,0.,24.0
1979-07-15 10:35:20.130 ,1,1,0.,24.0,0.,24.0,0.,24.0,0.,24.0
1979-07-15 10:35:44.130 ,1,0,0.,24.0,0.,24.0,0.,24.0,0.,24.0
1979-07-15 10:36:08.130 ,0,1,0.,24.0,0.,24.0,0.,24.0,0.,24.0
1979-07-15 10:36:32.130 ,0,0,0.,24.0,0.,24.0,0.,24.0,0.,24.0
1979-07-15 10:36:56.130 ,0,1,0.,24.0,0.,24.0,0.,24.0,0.,24.0
1979-07-15 10:37:20.130 ,0,0,0.,24.0,0.,24.0,0.,24.0,0.,24.0
1979-07-15 10:37:44.130 ,1,1,0.,24.0,0.,24.0,0.,24.0,0.,24.0
1979-07-15 10:38:08.130 ,1,0,0.,24.0,0.,24.0,0.,24.0,0.,24.0
1979-07-15 10:38:32.130 ,2,1,0.,24.0,0.,24.0,0.,24.0,0.,24.0
1979-07-15 10:38:56.130 ,2,0,0.,24.0,0.,24.0,0.,24.0,0.,24.0
1979-07-15 10:39:20.130 ,3,1,0.,24.0,0.,24.0,0.,24.0,0.,24.0
1979-07-15 10:39:44.130 ,3,0,0.,24.0,0.,24.0,0.,24.0,0.,24.0
1979-07-15 10:40:08.130 ,4,1,0.,24.0,0.,24.0,0.,24.0,0.,24.0
1979-07-15 10:40:32.130 ,4,0,0.,24.0,0.,24.0,0.,24.0,0.,24.0
1979-07-15 10:40:56.130 ,5,1,0.,24.0,0.,24.0,0.,24.0,0.,24.0
1979-07-15 10:41:20.130 ,5,0,0.,24.0,0.,24.0,0.,24.0,0.,24.0
1979-07-15 10:41:44.130 ,6,1,0.,24.0,0.,24.0,0.,24.0,0.,24.0
1979-07-15 10:42:08.130 ,6,0,0.,24.0,0.,24.0,0.,24.0,0.,24.0
1979-07-15 10:42:32.130 ,7,0,0.,24.0,0.,24.0,0.,24.0,0.,24.0
1979-07-15 10:42:56.130 ,7,0,0.,24.0,0.,24.0,0.,24.0,0.,24.0
1979-07-15 10:43:20.130 ,5,1,0.,24.0,0.,24.0,0.,24.0,0.,24.0
1979-07-15 10:43:44.130 ,1,1,0.,24.0,0.,24.0,0.,24.0,0.,24.0
1979-07-15 10:44:08.130 ,2,1,0.,24.0,0.,24.0,0.,24.0,0.,24.0
1979-07-15 10:44:32.130 ,6,1,0.,24.0,0.,24.0,0.,24.0,0.,24.0
1979-07-15 10:44:56.130 ,5,1,0.,24.0,0.,24.0,0.,24.0,0.,24.0
1979-07-15 10:45:20.130 ,1,1,0.,24.0,0.,24.0,0.,24.0,0.,24.0
1979-07-15 10:45:44.130 ,2,1,0.,24.0,0.,24.0,0.,24.0,0.,24.0
1979-07-15 10:46:08.130 ,6,1,0.,24.0,0.,24.0,0.,24.0,0.,24.0
1979-07-15 10:46:32.130 ,5,1,0.,24.0,0.,24.0,0.,24.0,0.,24.0
1979-07-15 10:46:56.130 ,1,1,0.,24.0,0.,24.0,0.,24.0,0.,24.0
1979-07-15 10:47:20.130 ,2,1,0.,24.0,0.,24.0,0.,24.0,0.,24.0
1979-07-15 10:47:44.130 ,6,1,0.,24.0,0.,24.0,0.,24.0,0.,24.0
1979-07-15 10:48:08.130 ,5,1,0.,24.0,0.,24.0,0.,24.0,0.,24.0
1979-07-15 10:48:32.130 ,1,1,0.,24.0,0.,24.0,0.,24.0,0.,24.0
1979-07-15 10:48:56.130 ,2,1,0.,24.0,0.,24.0,0.,24.0,0.,24.0
1979-07-15 10:49:20.130 ,6,1,0.,24.0,0.,24.0,0.,24.0,0.,24.0
1979-07-15 10:49:44.130 ,5,1,0.,24.0,0.,24.0,0.,24.0,0.,24.0
1979-07-15 10:50:08.130 ,1,1,0.,24.0,0.,24.0,0.,24.0,0.,24.0
1979-07-15 10:50:32.130 ,2,1,0.,24.0,0.,24.0,0.,24.0,0.,24.0
1979-07-15 10:50:56.130 ,6,1,0.,24.0,0.,24.0,0.,24.0,0.,24.0
1979-07-15 10:51:20.130 ,5,1,0.,24.0,0.,24.0,0.,24.0,0.,24.0
1979-07-15 10:51:44.130 ,1,1,0.,24.0,0.,24.0,0.,24.0,0.,24.0
1979-07-15 10:52:08.130 ,2,1,0.,24.0,0.,24.0,0.,24.0,0.,24.0
1979-07-15 10:52:32.130 ,6,1,0.,24.0,0.,24.0,0.,24.0,0.,24.0
1979-07-15 10:52:56.130 ,5,1,0.,24.0,0.,24.0,0.,24.0,0.,24.0
1979-07-15 10:53:20.130 ,1,1,0.,24.0,0.,24.0,0.,24.0,0.,24.0
1979-07-15 10:53:44.130 ,0,0,0.,24.0,0.,24.0,0.,24.0,0.,24.0
1979-07-15 10:54:08.130 ,0,0,0.,24.0,0.,24.0,0.,24.0,0.,24.0
1979-07-15 10:54:32.130 ,5,1,0.,24.0,0.,24.0,0.,24.0,0.,24.0
1979-07-15 10:54:56.130 ,5,0,0.,24.0,0.,24.0,0.,24.0,0.,24.0
1979-07-15 10:55:20.130 ,4,1,0.,24.0,0.,24.0,0.,24.0,0.,24.0
1979-07-15 10:55:44.130 ,4,0,0.,24.0,0.,24.0,0.,24.0,0.,24.0
1979-07-15 10:56:08.130 ,3,1,0.,24.0,0.,24.0,0.,24.0,0.,24.0
1979-07-15 10:56:32.130 ,3,0,0.,24.0,0.,24.0,0.,24.0,0.,24.0
1979-07-15 10:56:56.130 ,2,1,0.,24.0,0.,24.0,0.,24.0,0.,24.0
1979-07-15 10:57:20.130 ,2,0,0.,24.0,0.,24.0,0.,24.0,0.,24.0
1979-07-15 10:57:44.130 ,1,1,0.,24.0,0.,24.0,0.,24.0,0.,24.0
1979-07-15 10:58:08.130 ,1,0,0.,24.0,0.,24.0,0.,24.0,0.,24.0
1979-07-15 10:58:32.130 ,0,1,0.,24.0,0.,24.0,0.,24.0,0.,24.0
1979-07-15 10:58:56.130 ,0,0,0.,24.0,0.,24.0,0.,24.0,0.,24.0
1979-07-15 10:59:20.130 ,0,1,0.,24.0,0.,24.0,0.,24.0,0.,24.0
1979-07-15 10:59:44.130 ,0,0,0.,24.0,0.,24.0,0.,24.0,0.,24.0
1979-07-15 11:00:08.130 ,1,1,0.,24.0,0.,24.0,0.,24.0,0.,24.0
1979-07-15 11:00:32.130 ,1,0,0.,24.0,0.,24.0,0.,24.0,0.,24.0
1979-07-15 11:00:56.130 ,2,1,0.,24.0,0.,24.0,0.,24.0,0.,24.0
1979-07-15 11:01:20.130 ,2,0,0.,24.0,0.,24.0,0.,24.0,0.,24.0
1979-07-15 11:01:44.130 ,3,1,0.,24.0,0.,24.0,0.,24.0,0.,24.0
1979-07-15 11:02:08.130 ,3,0,0.,24.0,0.,24.0,0.,24.0,0.,24.0
1979-07-15 11:02:32.130 ,4,1,0.,24.0,0.,24.0,0.,24.0,0.,24.0
1979-07-15 11:02:56.130 ,4,0,0.,24.0,0.,24.0,0.,24.0,0.,24.0
1979-07-15 11:03:20.130 ,5,1,0.,24.0,0.,24.0,0.,24.0,0.,24.0
1979-07-15 11:03:44.130 ,5,0,0.,24.0,0.,24.0,0.,24.0,0.,24.0
1979-07-15 11:04:08.130 ,6,1,0.,24.0,0.,24.0,0.,24.0,0.,24.0
1979-07-15 11:04:32.130 ,6,0,0.,24.0,0.,24.0,0.,24.0,0.,24.0
1979-07-15 11:04:56.130 ,7,1,0.,24.0,0.,24.0,0.,24.0,0.,24.0
1979-07-15 11:05:20.130 ,7,0,0.,24.0,0.,24.0,0.,24.0,0.,24.0
1979-07-15 11:05:44.120 ,7,1,0.,24.0,0.,24.0,0.,24.0,0.,24.0
1979-07-15 11:06:08.120 ,7,0,0.,24.0,0.,24.0,0.,24.0,0.,24.0
1979-07-15 11:06:32.120 ,6,1,0.,24.0,0.,24.0,0.,24.0,0.,24.0
1979-07-15 11:06:56.120 ,6,0,0.,24.0,0.,24.0,0.,24.0,0.,24.0
1979-07-15 11:07:20.120 ,5,1,0.,24.0,0.,24.0,0.,24.0,0.,24.0
1979-07-15 11:07:44.120 ,5,0,0.,24.0,0.,24.0,0.,24.0,0.,24.0
1979-07-15 11:08:08.120 ,4,1,0.,24.0,0.,24.0,0.,24.0,0.,24.0
1979-07-15 11:08:32.120 ,4,0,0.,24.0,0.,24.0,0.,24.0,0.,24.0
1979-07-15 11:08:56.120 ,3,1,0.,24.0,0.,24.0,0.,24.0,0.,24.0
1979-07-15 11:09:20.120 ,3,0,0.,24.0,0.,24.0,0.,24.0,0.,24.0
1979-07-15 11:09:44.120 ,2,1,0.,24.0,0.,24.0,0.,24.0,0.,24.0
1979-07-15 11:10:08.120 ,2,0,0.,24.0,0.,24.0,0.,24.0,0.,24.0
1979-07-15 11:10:32.120 ,1,1,0.,24.0,0.,24.0,0.,24.0,0.,24.0
1979-07-15 11:10:56.120 ,1,0,0.,24.0,0.,24.0,0.,24.0,0.,24.0
1979-07-15 11:11:20.120 ,0,1,0.,24.0,0.,24.0,0.,24.0,0.,24.0
1979-07-15 11:11:44.120 ,0,0,0.,24.0,0.,24.0,0.,24.0,0.,24.0
1979-07-15 11:12:08.120 ,0,1,0.,24.0,0.,24.0,0.,24.0,0.,24.0
1979-07-15 11:12:32.120 ,0,0,0.,24.0,0.,24.0,0.,24.0,0.,24.0
1979-07-15 11:12:56.120 ,1,1,0.,24.0,0.,24.0,0.,24.0,0.,24.0
1979-07-15 11:13:20.120 ,1,0,0.,24.0,0.,24.0,0.,24.0,0.,24.0
1979-07-15 11:13:44.120 ,2,1,0.,24.0,0.,24.0,0.,24.0,0.,24.0
1979-07-15 11:14:08.120 ,2,0,0.,24.0,0.,24.0,0.,24.0,0.,24.0
1979-07-15 11:14:32.120 ,3,1,0.,24.0,0.,24.0,0.,24.0,0.,24.0
1979-07-15 11:14:56.120 ,3,0,0.,24.0,0.,24.0,0.,24.0,0.,24.0
1979-07-15 11:15:20.120 ,4,1,0.,24.0,0.,24.0,0.,24.0,0.,24.0
1979-07-15 11:15:44.120 ,4,0,0.,24.0,0.,24.0,0.,24.0,0.,24.0
1979-07-15 11:16:08.120 ,5,1,0.,24.0,0.,24.0,0.,24.0,0.,24.0
1979-07-15 11:16:32.120 ,5,0,0.,24.0,0.,24.0,0.,24.0,0.,24.0
1979-07-15 11:16:56.120 ,6,1,0.,24.0,0.,24.0,0.,24.0,0.,24.0
1979-07-15 11:17:20.120 ,6,0,0.,24.0,0.,24.0,0.,24.0,0.,24.0
1979-07-15 11:17:44.120 ,7,1,0.,24.0,0.,24.0,0.,24.0,0.,24.0
1979-07-15 11:18:08.120 ,7,0,0.,24.0,0.,24.0,0.,24.0,0.,24.0
1979-07-15 11:18:32.120 ,7,1,0.,24.0,0.,24.0,0.,24.0,0.,24.0
1979-07-15 11:18:56.120 ,7,0,0.,24.0,0.,24.0,0.,24.0,0.,24.0
1979-07-15 11:19:20.120 ,6,1,0.,24.0,0.,24.0,0.,24.0,0.,24.0
1979-07-15 11:19:44.120 ,6,0,0.,24.0,0.,24.0,0.,24.0,0.,24.0
1979-07-15 11:20:08.120 ,5,1,0.,24.0,0.,24.0,0.,24.0,0.,24.0
1979-07-15 11:20:32.120 ,5,0,0.,24.0,0.,24.0,0.,24.0,0.,24.0
1979-07-15 11:20:56.120 ,4,1,0.,24.0,0.,24.0,0.,24.0,0.,24.0
1979-07-15 11:21:44.120 ,3,1,0.,24.0,0.,24.0,0.,24.0,0.,24.0
1979-07-15 11:22:08.120 ,3,0,0.,24.0,0.,24.0,0.,24.0,0.,24.0
1979-07-15 11:22:32.120 ,2,1,0.,24.0,0.,24.0,0.,24.0,0.,24.0
1979-07-15 11:22:56.120 ,2,0,0.,24.0,0.,24.0,0.,24.0,0.,24.0
1979-07-15 11:23:20.120 ,1,1,0.,24.0,0.,24.0,0.,24.0,0.,24.0
1979-07-15 11:23:44.120 ,1,0,0.,24.0,0.,24.0,0.,24.0,0.,24.0
1979-07-15 11:24:08.120 ,0,1,0.,24.0,0.,24.0,0.,24.0,0.,24.0
1979-07-15 11:24:32.120 ,0,0,0.,24.0,0.,24.0,0.,24.0,0.,24.0
1979-07-15 11:24:56.120 ,0,1,0.,24.0,0.,24.0,0.,24.0,0.,24.0
1979-07-15 11:25:20.120 ,0,0,0.,24.0,0.,24.0,0.,24.0,0.,24.0
1979-07-15 11:25:44.120 ,1,1,0.,24.0,0.,24.0,0.,24.0,0.,24.0
1979-07-15 11:26:08.120 ,1,0,0.,24.0,0.,24.0,0.,24.0,0.,24.0
1979-07-15 11:26:32.120 ,2,1,0.,24.0,0.,24.0,0.,24.0,0.,24.0
1979-07-15 11:26:56.120 ,2,0,0.,24.0,0.,24.0,0.,24.0,0.,24.0
1979-07-15 11:27:20.120 ,3,1,0.,24.0,0.,24.0,0.,24.0,0.,24.0
1979-07-15 11:27:44.120 ,3,0,0.,24.0,0.,24.0,0.,24.0,0.,24.0
1979-07-15 11:28:08.120 ,4,1,0.,24.0,0.,24.0,0.,24.0,0.,24.0
1979-07-15 11:28:32.120 ,4,0,0.,24.0,0.,24.0,0.,24.0,0.,24.0
1979-07-15 11:28:56.120 ,5,1,0.,24.0,0.,24.0,0.,24.0,0.,24.0
1979-07-15 11:29:20.120 ,5,0,0.,24.0,0.,24.0,0.,24.0,0.,24.0
1979-07-15 11:29:44.120 ,6,1,0.,24.0,0.,24.0,0.,24.0,0.,24.0
1979-07-15 11:30:08.120 ,6,0,0.,24.0,0.,24.0,0.,24.0,0.,24.0
1979-07-15 11:30:32.120 ,7,0,0.,24.0,0.,24.0,0.,24.0,0.,24.0
1979-07-15 11:30:56.120 ,7,0,0.,24.0,0.,24.0,0.,24.0,0.,24.0
1979-07-15 11:31:20.120 ,5,1,0.,24.0,0.,24.0,0.,24.0,0.,24.0
1979-07-15 11:31:44.120 ,1,1,0.,24.0,0.,24.0,0.,24.0,0.,24.0
1979-07-15 11:32:08.120 ,2,1,0.,24.0,0.,24.0,0.,24.0,0.,24.0
1979-07-15 11:32:32.120 ,6,1,0.,24.0,0.,24.0,0.,24.0,0.,24.0
1979-07-15 11:32:56.120 ,5,1,0.,24.0,0.,24.0,0.,24.0,0.,24.0
1979-07-15 11:33:20.120 ,1,1,0.,24.0,0.,24.0,0.,24.0,0.,24.0
1979-07-15 11:33:44.120 ,2,1,0.,24.0,0.,24.0,0.,24.0,0.,24.0
1979-07-15 11:34:08.120 ,6,1,0.,24.0,0.,24.0,0.,24.0,0.,24.0
1979-07-15 11:34:32.120 ,5,1,0.,24.0,0.,24.0,0.,24.0,0.,24.0
1979-07-15 11:34:56.120 ,1,1,0.,24.0,0.,24.0,0.,24.0,0.,24.0